NOOR 1A (44827 NORAD) Tracking and Keplerian Element Data

This shows tracking and keplerian element data for the satellite.

Feedback or suggestion? Click here.




ElementValue
Catalog44827
NameNOOR 1A
Epoch Orbit1858
Epoch Day94.08230229
Epoch Year2020
RAAN322.6072
Inclination96.9894
Eccentricity0.003769
Argument of Perigee165.2356
Mean Anonmoly195.0017
Mean Motion15.68737981
Decay Rate0.0002452
L11 44827U 19084D 20094.08230229 .00024520 00000-0 20751-3 0 9999
L22 44827 96.9894 322.6072 0037690 165.2356 195.0017 15.68737981 18587

Live tracking and technical data element details for NOOR 1A (NORAD 44827). NOOR 1A can be tracked NOW for your location showing map with azimuth and elevation plus other details from your city location.

Track the satellite on the map from your city or location and see movement details for azimuth, elevation, latitude, longitude, range, height, and movement on the map or in text.







IsCatalogInMostPopularTable: catalog: 44827, numindb: 30
Update: records affected: 1



GetName: 44827 NOOR 1A

Hit Count: updated at: Fri, 10 Apr 2020 18:43:22 GMT